• In Hungary
  • List of Countries
  • For 7 days
  • Water Temperature
  • Satellite Maps
  • Weather Map
  • News
  • Weather Widgets
  • user-avatar
    Login

    Hourly Weather Dromore

    Today, 21 November, Tuesday

    Time Temperature Precipitation Wind Pressure Humidity
    00:00 +11°C° 0 mm 3 mps 745 mmHg 96%
    01:00 +11°C° 0.9 mm 3 mps 745 mmHg 96%
    02:00 +11°C° 0.9 mm 4 mps 744 mmHg 96%
    03:00 +12°C° 0.9 mm 4 mps 744 mmHg 96%
    04:00 +12°C° 0.3 mm 4 mps 744 mmHg 95%
    05:00 +12°C° 0.3 mm 5 mps 744 mmHg 95%
    06:00 +11°C° 0 mm 4 mps 744 mmHg 94%
    07:00 +11°C° 0.1 mm 4 mps 743 mmHg 94%
    08:00 +11°C° 0.1 mm 4 mps 743 mmHg 95%
    09:00 +10°C° 0.1 mm 5 mps 743 mmHg 95%
    10:00 +10°C° 0 mm 5 mps 742 mmHg 94%
    11:00 +11°C° 0 mm 6 mps 741 mmHg 92%
    12:00 +11°C° 0 mm 6 mps 741 mmHg 91%
    13:00 +11°C° 0.1 mm 6 mps 740 mmHg 91%
    14:00 +11°C° 0.1 mm 7 mps 739 mmHg 92%
    15:00 +12°C° 0.1 mm 7 mps 738 mmHg 92%
    16:00 +11°C° 0.1 mm 7 mps 738 mmHg 91%
    17:00 +11°C° 0.1 mm 7 mps 737 mmHg 90%
    18:00 +11°C° 0.1 mm 7 mps 737 mmHg 89%
    19:00 +10°C° 0 mm 7 mps 737 mmHg 90%
    20:00 +10°C° 0 mm 6 mps 737 mmHg 90%
    21:00 +9°C° 0 mm 6 mps 737 mmHg 91%
    22:00 +9°C° 0 mm 6 mps 736 mmHg 90%
    23:00 +9°C° 0 mm 6 mps 736 mmHg 90%

    Tomorrow, 22 November, Wednesday

    Time Temperature Precipitation Wind Pressure Humidity
    00:00 +9°C° 0 mm 6 mps 736 mmHg 89%
    01:00 +9°C° 0.1 mm 5 mps 735 mmHg 91%
    02:00 +9°C° 0.1 mm 5 mps 734 mmHg 93%
    03:00 +8°C° 0.1 mm 4 mps 734 mmHg 94%
    04:00 +8°C° 1.3 mm 4 mps 733 mmHg 95%
    05:00 +8°C° 1.3 mm 4 mps 732 mmHg 95%
    06:00 +9°C° 1.3 mm 3 mps 731 mmHg 96%
    07:00 +8°C° 2.9 mm 4 mps 730 mmHg 96%
    08:00 +7°C° 2.9 mm 4 mps 729 mmHg 96%
    09:00 +7°C° 2.9 mm 4 mps 727 mmHg 96%
    10:00 +7°C° 2.8 mm 5 mps 726 mmHg 96%
    11:00 +7°C° 2.8 mm 5 mps 726 mmHg 96%
    12:00 +8°C° 2.8 mm 6 mps 725 mmHg 96%
    13:00 +8°C° 0.3 mm 5 mps 724 mmHg 95%
    14:00 +8°C° 0.3 mm 4 mps 723 mmHg 95%
    15:00 +9°C° 0.3 mm 3 mps 723 mmHg 94%
    16:00 +8°C° 0.7 mm 3 mps 722 mmHg 95%
    17:00 +8°C° 0.7 mm 2 mps 722 mmHg 96%
    18:00 +9°C° 0.7 mm 1 mps 721 mmHg 96%
    19:00 +8°C° 2.2 mm 2 mps 721 mmHg 96%
    20:00 +7°C° 2.2 mm 4 mps 721 mmHg 96%
    21:00 +7°C° 2.2 mm 5 mps 720 mmHg 96%
    22:00 +5°C° 0.2 mm 6 mps 721 mmHg 93%
    23:00 +5°C° 0.2 mm 7 mps 721 mmHg 90%

    Day after tomorrow, 23 November, Thursday

    Time Temperature Precipitation Wind Pressure Humidity
    00:00 +3°C° 0.2 mm 9 mps 722 mmHg 87%
    01:00 +2°C° 0 mm 9 mps 722 mmHg 85%
    02:00 +1°C° 0 mm 9 mps 723 mmHg 84%
    03:00 +1°C° 0 mm 9 mps 724 mmHg 82%
    04:00 +1°C° 0 mm 10 mps 724 mmHg 80%
    05:00 +1°C° 0 mm 11 mps 724 mmHg 78%
    06:00 0°C° 0 mm 12 mps 724 mmHg 76%
    07:00 0°C° 0 mm 13 mps 724 mmHg 75%
    08:00 +1°C° 0 mm 13 mps 723 mmHg 73%
    09:00 +1°C° 0 mm 14 mps 722 mmHg 72%
    10:00 +3°C° 0.1 mm 14 mps 722 mmHg 71%
    11:00 +4°C° 0.1 mm 14 mps 723 mmHg 70%
    12:00 +4°C° 0.1 mm 14 mps 723 mmHg 69%
    13:00 +4°C° 0 mm 14 mps 725 mmHg 69%
    14:00 +4°C° 0 mm 14 mps 726 mmHg 69%
    15:00 +4°C° 0 mm 14 mps 728 mmHg 69%
    16:00 +3°C° 0 mm 13 mps 729 mmHg 71%
    17:00 +3°C° 0 mm 12 mps 731 mmHg 73%
    18:00 +2°C° 0 mm 10 mps 733 mmHg 75%
    19:00 +2°C° 0 mm 10 mps 734 mmHg 77%
    20:00 +2°C° 0 mm 9 mps 735 mmHg 79%
    21:00 +1°C° 0 mm 8 mps 737 mmHg 81%
    22:00 +2°C° 0.1 mm 7 mps 738 mmHg 83%
    23:00 +2°C° 0.1 mm 7 mps 738 mmHg 84%

    24 November, Friday

    Time Temperature Precipitation Wind Pressure Humidity
    00:00 +1°C° 0.1 mm 6 mps 739 mmHg 86%
    01:00 +1°C° 0 mm 5 mps 740 mmHg 87%
    02:00 0°C° 0 mm 5 mps 740 mmHg 89%
    03:00 0°C° 0 mm 4 mps 741 mmHg 90%
    04:00 +1°C° 0 mm 3 mps 741 mmHg 90%
    05:00 +1°C° 0 mm 3 mps 742 mmHg 90%
    06:00 +1°C° 0 mm 3 mps 742 mmHg 90%
    07:00 +2°C° 0 mm 2 mps 742 mmHg 89%
    08:00 +2°C° 0 mm 2 mps 743 mmHg 88%
    09:00 +3°C° 0 mm 1 mps 743 mmHg 87%
    10:00 +4°C° 0 mm 1 mps 743 mmHg 83%
    11:00 +5°C° 0 mm 1 mps 743 mmHg 80%
    12:00 +5°C° 0 mm 1 mps 744 mmHg 77%
    13:00 +4°C° 0 mm 2 mps 743 mmHg 78%
    14:00 +4°C° 0 mm 2 mps 743 mmHg 78%
    15:00 +4°C° 0 mm 2 mps 743 mmHg 79%
    16:00 +4°C° 0 mm 2 mps 743 mmHg 79%
    17:00 +2°C° 0 mm 3 mps 742 mmHg 79%
    18:00 +2°C° 0 mm 3 mps 742 mmHg 79%
    19:00 +1°C° 0.1 mm 4 mps 742 mmHg 78%
    20:00 +1°C° 0.1 mm 4 mps 742 mmHg 77%
    21:00 +1°C° 0.1 mm 4 mps 742 mmHg 76%
    22:00 +1°C° 0 mm 5 mps 741 mmHg 75%
    23:00 +1°C° 0 mm 6 mps 741 mmHg 74%

    25 November, Saturday

    Time Temperature Precipitation Wind Pressure Humidity
    00:00 +1°C° 0 mm 6 mps 741 mmHg 73%
    01:00 0°C° 0.1 mm 7 mps 741 mmHg 73%
    02:00 0°C° 0.1 mm 7 mps 740 mmHg 74%
    03:00 0°C° 0.1 mm 7 mps 740 mmHg 74%
    04:00 0°C° 0.1 mm 7 mps 741 mmHg 73%
    05:00 0°C° 0.1 mm 8 mps 741 mmHg 72%
    06:00 0°C° 0.1 mm 8 mps 741 mmHg 71%
    07:00 0°C° 0.1 mm 8 mps 742 mmHg 72%
    08:00 -1°C° 0.1 mm 7 mps 742 mmHg 72%
    09:00 -1°C° 0.1 mm 7 mps 743 mmHg 73%
    10:00 0°C° 0 mm 8 mps 743 mmHg 70%
    11:00 +1°C° 0 mm 8 mps 743 mmHg 67%
    12:00 +2°C° 0 mm 9 mps 743 mmHg 64%
    13:00 +1°C° 0.1 mm 9 mps 744 mmHg 65%
    14:00 +1°C° 0.1 mm 9 mps 744 mmHg 66%
    15:00 +1°C° 0.1 mm 9 mps 744 mmHg 66%
    16:00 +1°C° 0.1 mm 9 mps 745 mmHg 69%
    17:00 0°C° 0.1 mm 9 mps 746 mmHg 71%
    18:00 0°C° 0.1 mm 8 mps 747 mmHg 73%
    19:00 0°C° 0.1 mm 8 mps 747 mmHg 74%
    20:00 -1°C° 0.1 mm 8 mps 747 mmHg 75%
    21:00 -1°C° 0.1 mm 8 mps 748 mmHg 75%
    22:00 -1°C° 0 mm 8 mps 748 mmHg 75%
    23:00 -1°C° 0 mm 9 mps 748 mmHg 75%

    26 November, Sunday

    Time Temperature Precipitation Wind Pressure Humidity
    00:00 0°C° 0 mm 9 mps 748 mmHg 74%
    01:00 0°C° 0.2 mm 10 mps 748 mmHg 76%
    02:00 +1°C° 0.2 mm 10 mps 749 mmHg 77%
    03:00 +2°C° 0.2 mm 11 mps 749 mmHg 79%
    04:00 +2°C° 0.1 mm 10 mps 750 mmHg 80%
    05:00 +2°C° 0.1 mm 9 mps 750 mmHg 82%
    06:00 +2°C° 0.1 mm 8 mps 751 mmHg 83%
    07:00 +2°C° 0 mm 8 mps 752 mmHg 84%
    08:00 +2°C° 0 mm 7 mps 752 mmHg 85%
    09:00 +2°C° 0 mm 7 mps 753 mmHg 86%
    10:00 +3°C° 0.1 mm 7 mps 754 mmHg 84%
    11:00 +3°C° 0.1 mm 7 mps 754 mmHg 82%
    12:00 +4°C° 0.1 mm 7 mps 755 mmHg 79%
    13:00 +4°C° 0.1 mm 7 mps 755 mmHg 79%
    14:00 +3°C° 0.1 mm 7 mps 754 mmHg 78%
    15:00 +3°C° 0.1 mm 7 mps 754 mmHg 78%
    16:00 +3°C° 0 mm 7 mps 754 mmHg 79%
    17:00 +2°C° 0 mm 7 mps 754 mmHg 80%
    18:00 +2°C° 0 mm 6 mps 754 mmHg 81%
    19:00 +2°C° 0 mm 6 mps 754 mmHg 82%
    20:00 +2°C° 0 mm 6 mps 754 mmHg 84%
    21:00 +2°C° 0 mm 7 mps 754 mmHg 85%
    22:00 +2°C° 0.1 mm 7 mps 753 mmHg 86%
    23:00 +2°C° 0.1 mm 8 mps 752 mmHg 87%
    Show more